Lapse_Rate
6.0 5.9 5.6 5.2 5.6 5.5 5.5 5.8 6.1 6.4 6.6 6.4 6.8 7.0 7.0 7.1 7.2 7.2 7.2 6.5 6.2 6.3 6.3 6.4 6.3 6.3 5.9
6.3 5.9 5.5 5.5 5.7 5.9 5.7 5.8 6.0 6.2 6.2 6.2 6.5 6.8 7.1 7.4 7.1 7.3 7.2 6.8 6.0 5.3 5.4 6.3 6.1 5.4 5.7
6.2 5.7 5.6 5.8 6.4 6.1 6.2 5.9 6.0 6.2 6.3 6.4 6.6 6.9 7.3 7.7 7.8 7.3 7.2 6.5 5.5 5.4 6.1 5.8 6.2 5.5 5.6
5.7 5.6 5.6 6.1 5.9 5.8 6.2 5.6 6.2 6.2 6.2 6.2 6.0 6.2 6.4 7.1 7.4 7.2 6.9 6.4 6.1 6.0 6.2 6.2 6.3 6.6 6.0
5.7 5.5 5.9 6.3 5.6 5.5 5.7 6.0 6.4 6.4 6.4 6.0 5.9 6.0 6.4 7.0 6.7 7.0 6.8 6.3 6.3 5.7 6.0 5.8 5.6 5.3 5.1
5.6 5.4 5.8 5.5 5.2 5.4 5.8 6.1 6.8 6.1 6.0 6.3 5.8 6.3 6.4 7.4 7.3 7.0 6.7 6.4 6.3 5.7 5.7 6.0 6.1 5.6 5.4
5.5 5.3 5.7 5.1 4.9 5.4 5.6 5.7 6.2 6.0 5.6 6.0 5.9 6.5 6.5 7.3 7.2 7.2 6.6 6.8 6.9 5.4 5.2 5.5 5.1 5.6 5.3
5.5 5.5 5.5 5.1 4.7 5.0 5.7 6.0 5.8 5.8 5.3 5.9 6.1 6.2 6.8 7.1 7.0 7.2 7.0 7.1 6.6 5.6 5.7 5.2 5.1 5.2 5.3
5.5 5.4 5.3 4.5 4.6 5.0 5.6 5.4 5.9 5.9 5.5 5.9 5.7 5.8 6.1 6.5 7.3 7.2 7.3 7.3 6.2 5.6 5.3 5.0 5.0 5.1 5.2
5.8 5.5 5.4 4.8 4.7 4.9 5.1 5.4 5.7 6.0 5.4 5.9 5.7 5.3 5.9 6.4 7.4 7.6 7.5 7.3 6.9 6.0 5.4 5.1 5.1 5.1 5.4
6.0 5.7 5.9 5.3 4.8 4.9 5.2 4.9 5.6 5.6 5.3 5.5 5.5 5.2 5.1 6.5 6.8 6.6 7.1 7.4 6.9 6.2 5.1 5.0 5.1 5.1 5.1
6.0 5.9 6.1 5.5 5.2 5.3 5.3 5.1 5.3 5.4 5.8 5.8 5.6 4.7 5.6 6.7 6.4 6.4 6.2 7.0 7.0 6.4 5.5 5.4 5.2 5.5 5.5
5.9 5.9 6.0 5.4 5.3 5.6 5.2 5.4 5.4 5.5 5.9 6.1 5.9 4.6 4.6 6.2 6.1 5.9 5.8 6.1 6.8 6.8 6.4 5.8 5.6 5.8 5.4
5.7 5.9 6.0 5.4 5.7 5.7 5.7 5.8 5.9 5.8 6.0 6.1 5.7 4.8 4.5 6.5 6.4 6.1 5.9 6.1 6.4 6.9 6.5 5.7 5.8 5.6 5.5
5.7 5.8 6.0 5.6 5.8 5.6 5.7 5.7 5.7 5.9 6.0 6.2 5.8 4.7 4.5 5.9 6.5 5.9 6.3 6.1 6.2 6.3 6.3 5.8 5.8 5.4 5.5
5.6 5.5 5.8 5.8 5.8 5.7 5.6 5.6 5.6 5.9 6.0 6.2 5.9 4.2 4.6 5.5 6.3 6.0 6.0 5.7 6.3 5.5 5.6 5.5 5.4 5.3 5.4
5.5 5.4 5.6 5.6 5.8 5.7 5.5 5.5 5.5 5.9 6.1 6.2 5.8 4.7 4.7 5.8 5.7 6.0 6.2 6.2 6.1 5.6 5.4 5.0 5.0 4.8 4.9
Wind_Speed
12 14 17 16 16 18 23 14 15 29 29 28 34 32 32 31 29 32 31 30 29 26 27 30 28 28 46
16 13 15 16 15 17 13 11 13 22 27 33 34 31 27 28 30 28 27 25 24 23 24 30 25 32 32
14 12 13 12 14 14 14 14 11 22 29 30 29 29 31 28 27 25 24 23 23 20 28 23 25 37 38
13 12 11 13 11 12 13 12 13 13 20 21 27 27 27 25 22 20 19 21 21 22 18 15 20 28 39
12 12 12 12 13 12 12 14 14 10 11 12 12 11 11 16 14 16 20 14 16 20 19 17 21 34 37
12 12 15 13 13 11 12 13 14 8 12 16 11 10 11 8 17 17 18 17 14 20 21 22 15 33 34
15 15 16 16 14 13 14 13 13 14 12 15 10 10 11 11 22 20 19 18 17 21 27 25 24 24 33
13 14 14 15 14 15 15 14 13 11 10 12 11 13 12 12 25 21 20 18 19 23 28 26 28 25 31
23 24 24 24 20 12 10 12 13 14 12 5 10 13 11 10 8 17 20 22 21 26 26 27 28 30 25
10 11 13 14 22 11 9 11 11 12 4 10 11 6 5 4 4 6 9 18 23 23 23 29 36 20 21
8 7 8 8 8 8 11 9 11 12 13 9 7 10 4 5 3 2 4 11 11 13 23 29 38 28 22
8 7 7 8 8 9 10 11 10 12 12 11 6 9 7 5 3 3 6 10 10 10 13 23 30 31 33
6 6 6 8 9 9 10 11 11 9 7 9 8 11 5 5 5 3 8 10 10 11 14 13 17 17 20
5 5 7 7 7 8 9 9 10 8 9 10 9 11 9 8 5 7 5 5 13 12 9 14 18 17 20
7 6 6 5 7 7 7 7 8 9 9 8 10 6 9 15 9 10 11 13 15 18 19 14 13 17 19
8 7 6 7 7 7 7 7 8 8 9 8 7 5 2 12 27 10 10 13 13 18 22 19 14 11 19
8 8 6 5 8 7 7 6 7 7 9 8 7 6 8 11 8 33 9 11 16 15 16 17 16 11 16
Wind_Direction
290 296 298 297 298 299 295 293 294 302 299 303 300 293 284 275 274 272 265 261 270 256 247 229 197 190 170
294 299 296 298 295 294 298 298 296 292 304 304 299 298 289 288 273 266 260 260 264 258 259 210 188 182 166
291 297 298 301 303 295 300 297 293 300 298 294 294 296 296 284 272 264 258 255 260 245 250 198 187 188 174
294 296 303 302 300 303 304 304 304 299 293 290 300 296 294 284 278 261 266 259 260 235 227 185 187 177 172
294 300 306 312 308 305 298 307 304 300 298 301 308 301 288 273 263 263 263 270 245 222 221 197 187 178 185
290 298 304 306 302 304 306 317 314 314 314 304 310 287 299 291 284 275 267 268 283 207 216 204 192 172 171
293 298 299 304 301 312 311 308 308 306 301 302 305 288 297 279 283 268 259 253 257 212 195 201 182 171 162
281 287 285 296 310 308 308 302 297 296 302 298 311 301 297 283 278 265 255 243 251 207 187 183 178 175 175
282 290 298 306 306 309 311 316 314 314 314 284 315 305 296 278 253 253 245 221 221 192 187 187 175 174 164
281 282 296 299 305 304 305 311 314 316 337 320 314 315 306 259 237 245 195 196 182 173 172 188 182 168 156
295 288 293 297 295 305 306 309 305 298 315 326 306 306 264 292 286 309 177 165 167 163 156 165 160 165 151
301 304 304 308 303 309 305 304 296 291 312 320 294 302 295 296 302 323 160 156 160 160 148 158 139 140 140
294 303 303 303 301 304 311 302 303 292 309 320 333 329 301 325 287 300 139 152 150 148 145 146 128 132 131
284 300 312 314 316 317 318 326 320 319 307 303 316 349 4 337 350 53 60 144 136 131 126 123 124 127 127
323 309 306 308 309 315 320 322 325 321 324 334 331 324 22 19 34 44 74 89 114 118 106 103 109 126 121
322 307 307 309 312 320 324 326 327 328 328 342 343 338 303 30 31 45 64 92 100 111 110 103 90 94 113
317 309 302 299 316 319 327 328 335 335 347 353 357 2 50 54 18 28 72 94 102 93 96 96 98 95 106